DW7590 Weather Reports


Display with metric or nautical units.
time (UTC)temp
F
wind
direction
speed
MPH
gust
MPH
rain 1hr
in
rain 24hr
in
rain mn
in
humidity
%
barometer
mb
20260506050747 49 143 5.0 14.0 0.00 0.00 0.00 71 1012.1
20260506050248 49 69 14.0 14.0 0.00 0.00 0.00 71 1012.3
20260506044247 49 89 2.0 13.0 0.00 0.00 0.00 70 1012.4
20260506043748 49 61 9.0 12.0 0.00 0.00 0.00 70 1012.2
20260506043247 49 65 1.0 13.0 0.00 0.00 0.00 70 1012.2
20260506042747 49 62 3.0 13.0 0.00 0.00 0.00 70 1012.2
20260506042247 49 89 6.0 12.0 0.00 0.00 0.00 71 1012.3
20260506041748 49 83 2.0 14.0 0.00 0.00 0.00 72 1012.1
20260506040747 49 61 14.0 16.0 0.00 0.00 0.00 73 1012.1
20260506040247 49 94 5.0 14.0 0.00 0.00 0.00 73 1012.1
20260506035747 49 113 3.0 13.0 0.00 0.00 0.00 74 1012.2
20260506034747 49 61 1.0 14.0 0.00 0.00 0.00 75 1012.0
20260506034248 49 61 7.0 14.0 0.00 0.00 0.00 75 1011.9
20260506033748 49 116 5.0 20.0 0.00 0.00 0.00 76 1011.7
20260506033248 49 51 5.0 20.0 0.00 0.00 0.00 76 1011.5
20260506032748 49 350 5.0 14.0 0.00 0.00 0.00 77 1011.2
20260506032247 49 70 7.0 17.0 0.00 0.00 0.00 77 1011.2
20260506031747 49 69 3.0 17.0 0.00 0.00 0.00 78 1011.4
20260506031247 49 73 2.0 14.0 0.00 0.00 0.00 79 1011.4
20260506030747 49 47 7.0 14.0 0.00 0.00 0.00 79 1011.4
20260506030247 49 41 6.0 17.0 0.00 0.00 0.00 79 1011.5
20260506025747 49 29 12.0 20.0 0.00 0.00 0.00 79 1011.5
20260506025247 49 82 3.0 20.0 0.00 0.00 0.00 79 1011.5
20260506024747 49 68 3.0 12.0 0.00 0.00 0.00 80 1012.0
20260506024247 49 103 1.0 12.0 0.00 0.00 0.00 80 1012.1
20260506023748 49 46 2.0 12.0 0.00 0.00 0.00 81 1012.2
20260506023247 49 39 3.0 12.0 0.00 0.00 0.00 81 1012.1
20260506022747 49 78 1.0 8.0 0.00 0.00 0.00 82 1011.7
20260506022247 49 38 2.0 9.0 0.00 0.00 0.00 82 1011.7
20260506021747 49 74 2.0 10.0 0.00 0.00 0.00 82 1011.7
20260506021248 48 39 2.0 16.0 0.00 0.00 0.00 82 1011.4
20260506020747 48 84 2.0 16.0 0.00 0.00 0.00 82 1011.4
20260506020247 48 88 3.0 17.0 0.00 0.00 0.00 82 1011.3
20260506015247 49 15 8.0 13.0 0.00 0.00 0.00 82 1011.4
20260506014747 49 354 2.0 13.0 0.00 0.00 0.00 82 1011.2
20260506014247 49 35 7.0 13.0 0.00 0.00 0.00 82 1011.0
20260506013747 49 359 1.0 7.0 0.00 0.00 0.00 81 1011.1
20260506013247 49 30 1.0 7.0 0.00 0.00 0.00 81 1011.1
20260506012747 49 355 6.0 8.0 0.00 0.00 0.00 80 1011.1
20260506010747 50 53 3.0 8.0 0.00 0.00 0.00 79 1010.4
20260506005747 49 43 6.0 7.0 0.00 0.00 0.00 79 1010.3
20260506005247 50 340 1.0 12.0 0.00 0.00 0.00 79 1009.9
20260506004747 50 57 2.0 12.0 0.00 0.00 0.00 79 1009.7
20260506004247 50 6 2.0 16.0 0.00 0.00 0.00 79 1009.4
20260506003747 50 82 3.0 16.0 0.00 0.00 0.00 79 1009.5
20260506003247 50 10 1.0 13.0 0.00 0.00 0.00 79 1009.6
20260506002747 50 45 2.0 13.0 0.00 0.00 0.00 78 1009.6
20260506002247 50 25 2.0 14.0 0.00 0.00 0.00 78 1009.5
20260506001748 50 39 2.0 14.0 0.00 0.00 0.00 77 1009.5
20260506000748 50 51 2.0 13.0 0.00 0.00 0.00 77 1009.4
20260506000247 50 20 13.0 13.0 0.00 0.00 0.00 77 1009.3
20260505235247 51 27 3.0 5.0 0.00 0.00 0.00 77 1009.1
20260505234747 51 68 2.0 7.0 0.00 0.00 0.00 76 1009.6
20260505234247 51 61 1.0 8.0 0.00 0.00 0.00 76 1009.8
20260505233747 51 71 3.0 16.0 0.00 0.00 0.00 76 1009.7
20260505233247 51 89 2.0 16.0 0.00 0.00 0.00 75 1009.8
20260505232247 51 39 2.0 14.0 0.00 0.00 0.00 74 1009.7
20260505231747 51 45 2.0 17.0 0.00 0.00 0.00 74 1009.4
20260505231247 51 92 2.0 17.0 0.00 0.00 0.00 74 1009.2
20260505230747 51 95 5.0 16.0 0.00 0.00 0.00 74 1009.0
20260505230247 51 89 7.0 16.0 0.00 0.00 0.00 74 1009.0
20260505225248 51 10 1.0 20.0 0.00 0.00 0.00 73 1009.0
20260505224747 51 45 1.0 20.0 0.00 0.00 0.00 73 1009.1
20260505223747 52 74 7.0 14.0 0.00 0.00 0.00 73 1009.1
20260505223247 52 95 2.0 12.0 0.00 0.00 0.00 73 1009.1
20260505222747 52 41 2.0 12.0 0.00 0.00 0.00 74 1009.0
20260505222247 52 287 1.0 20.0 0.00 0.00 0.00 74 1008.8
20260505221247 52 56 3.0 18.0 0.00 0.00 0.00 74 1008.6
20260505220747 52 10 2.0 18.0 0.00 0.00 0.00 74 1009.0
20260505220247 52 26 7.0 20.0 0.00 0.00 0.00 74 1008.9
20260505215747 52 20 7.0 20.0 0.00 0.00 0.00 73 1008.9
20260505215247 53 51 2.0 17.0 0.00 0.00 0.00 74 1008.2
20260505214747 53 110 3.0 22.0 0.00 0.00 0.00 73 1007.9
20260505213747 53 82 3.0 14.0 0.00 0.00 0.00 74 1008.0
20260505213247 53 49 2.0 18.0 0.00 0.00 0.00 74 1008.0
20260505211747 53 103 2.0 18.0 0.00 0.00 0.00 73 1007.5
20260505211247 54 64 5.0 17.0 0.00 0.00 0.00 73 1007.9
20260505210747 53 61 15.0 17.0 0.00 0.00 0.00 74 1007.5
20260505210247 53 2 6.0 20.0 0.00 0.00 0.00 75 1007.7
20260505205747 53 359 6.0 20.0 0.00 0.00 0.00 74 1008.2
20260505205247 53 68 3.0 14.0 0.00 0.00 0.00 74 1008.6
20260505204747 53 90 3.0 17.0 0.00 0.00 0.00 74 1008.6
20260505204247 53 84 12.0 20.0 0.00 0.00 0.00 75 1008.5
20260505203747 53 74 7.0 20.0 0.00 0.00 0.00 74 1008.2
20260505203247 53 72 6.0 16.0 0.00 0.00 0.00 74 1008.0
20260505202747 54 15 5.0 17.0 0.00 0.00 0.00 74 1007.8
20260505201747 54 104 2.0 17.0 0.00 0.00 0.00 75 1007.6
20260505201247 54 101 2.0 18.0 0.00 0.00 0.00 75 1007.7
20260505200747 54 10 14.0 18.0 0.00 0.00 0.00 74 1007.5
20260505195747 54 34 13.0 20.0 0.00 0.00 0.00 75 1007.5
20260505195247 53 58 9.0 21.0 0.00 0.00 0.00 75 1007.5
20260505194747 53 73 2.0 21.0 0.00 0.00 0.00 76 1007.5
20260505194247 53 40 3.0 18.0 0.00 0.00 0.00 76 1007.5
20260505193747 53 54 5.0 17.0 0.00 0.00 0.00 78 1007.5
20260505193247 53 33 2.0 16.0 0.00 0.00 0.00 78 1007.4
20260505192748 53 325 1.0 17.0 0.00 0.00 0.00 79 1007.5
20260505192247 53 84 12.0 18.0 0.00 0.00 0.00 80 1007.3
20260505191748 53 20 6.0 18.0 0.00 0.00 0.00 79 1007.2
20260505191247 54 38 14.0 18.0 0.00 0.00 0.00 79 1007.4
20260505190747 54 327 11.0 17.0 0.00 0.00 0.00 80 1007.5
20260505190247 54 346 7.0 22.0 0.00 0.00 0.00 80 1007.3
20260505185747 54 10 17.0 22.0 0.00 0.00 0.00 80 1007.3
20260505185247 54 43 7.0 18.0 0.00 0.00 0.00 79 1007.2
20260505184747 54 50 13.0 18.0 0.00 0.00 0.00 79 1007.1
20260505184247 55 85 2.0 9.0 0.00 0.00 0.00 79 1007.1
20260505183747 55 38 2.0 12.0 0.00 0.00 0.00 79 1007.1
20260505183248 55 61 2.0 12.0 0.00 0.00 0.00 79 1007.0
20260505182247 55 330 2.0 18.0 0.00 0.00 0.00 79 1006.8
20260505181747 55 39 3.0 20.0 0.00 0.00 0.00 79 1006.6
20260505181247 55 41 2.0 22.0 0.00 0.00 0.00 79 1006.6
20260505180748 55 53 3.0 23.0 0.00 0.00 0.00 79 1006.6
20260505180247 55 29 12.0 23.0 0.00 0.00 0.00 78 1006.5
20260505175747 55 10 1.0 21.0 0.00 0.00 0.00 79 1006.3
20260505175247 55 10 6.0 21.0 0.00 0.00 0.00 79 1006.2
20260505174747 55 126 3.0 20.0 0.00 0.00 0.00 79 1006.0
20260505174247 55 43 2.0 23.0 0.00 0.00 0.00 79 1005.9
20260505173748 56 26 1.0 23.0 0.00 0.00 0.00 80 1005.9
20260505173247 55 83 5.0 21.0 0.00 0.00 0.00 80 1005.9
20260505172748 56 61 3.0 18.0 0.00 0.00 0.00 80 1006.0
20260505172247 55 358 1.0 20.0 0.00 0.00 0.00 81 1005.7
20260505171747 56 46 5.0 20.0 0.00 0.00 0.00 80 1005.8
20260505171247 56 56 3.0 22.0 0.00 0.00 0.00 81 1005.9
20260505170747 56 300 2.0 22.0 0.00 0.00 0.00 80 1005.8
20260505170247 56 330 2.0 14.0 0.00 0.00 0.00 81 1005.6
20260505165247 56 326 3.0 12.0 0.00 0.00 0.00 81 1005.4
20260505164747 56 93 5.0 21.0 0.00 0.00 0.00 82 1005.2
20260505164248 56 40 11.0 21.0 0.00 0.00 0.00 82 1005.0
20260505163747 56 30 9.0 21.0 0.00 0.00 0.00 82 1004.8
20260505163247 56 68 2.0 21.0 0.00 0.00 0.00 82 1004.7
20260505162747 56 44 12.0 22.0 0.00 0.00 0.00 82 1004.5
20260505162248 56 53 2.0 22.0 0.00 0.00 0.00 82 1004.3
20260505161748 57 76 6.0 20.0 0.00 0.00 0.00 82 1004.4
20260505160747 57 315 5.0 22.0 0.00 0.00 0.00 82 1003.8
20260505160247 58 2 12.0 22.0 0.00 0.00 0.00 82 1003.7
20260505153247 60 20 6.0 18.0 0.00 0.00 0.00 83 1003.2
20260505152747 61 5 7.0 23.0 0.00 0.00 0.00 82 1003.2
20260505152247 61 47 18.0 23.0 0.00 0.00 0.00 82 1003.1
20260505151247 62 36 6.0 29.0 0.00 0.00 0.00 81 1002.8
20260505150747 63 20 11.0 21.0 0.00 0.00 0.00 79 1002.7
20260505150247 65 61 12.0 17.0 0.00 0.00 0.00 79 1002.6
20260505140247 67 118 3.0 9.0 0.00 0.00 0.00 85 1001.4
20260505130247 65 125 1.0 12.0 0.00 0.00 0.00 87 1001.1
20260505124747 65 65 3.0 12.0 0.00 0.00 0.00 86 1001.1
20260505124248 65 116 3.0 12.0 0.00 0.00 0.00 86 1001.0
20260505123748 65 82 3.0 12.0 0.00 0.00 0.00 86 1001.0
20260505123247 65 76 2.0 12.0 0.00 0.00 0.00 85 1001.0
20260505122247 65 94 2.0 10.0 0.00 0.00 0.00 85 1000.8
20260505121747 66 96 2.0 10.0 0.00 0.00 0.00 84 1000.8
20260505121247 66 114 8.0 10.0 0.00 0.00 0.00 83 1000.7
20260505120247 67 80 3.0 9.0 0.00 0.00 0.00 81 1000.6
20260505115747 68 84 3.0 5.0 0.00 0.00 0.00 80 1000.5
20260505114747 69 103 6.0 7.0 0.00 0.00 0.00 78 1000.5
20260505113747 69 60 1.0 3.0 0.00 0.00 0.00 77 1000.1
20260505113248 70 15 1.0 0.0 0.00 0.00 0.00 76 1000.1
20260505112747 70 15 1.0 5.0 0.00 0.00 0.00 76 999.9
20260505112247 70 15 1.0 5.0 0.00 0.00 0.00 75 999.9
20260505111747 70 348 1.0 1.0 0.00 0.00 0.00 75 1000.0
20260505111247 71 347 1.0 4.0 0.00 0.00 0.00 74 1000.1
20260505110747 71 347 1.0 4.0 0.00 0.00 0.00 74 1000.0
20260505110247 71 311 2.0 5.0 0.00 0.00 0.00 73 999.9
20260505101747 72 236 2.0 14.0 0.00 0.00 0.00 73 998.7
20260505101248 72 210 1.0 13.0 0.00 0.00 0.00 73 998.7
20260505100747 72 161 6.0 13.0 0.00 0.00 0.00 73 998.6
20260505100247 72 241 1.0 13.0 0.00 0.00 0.00 73 998.4
20260505095747 72 217 1.0 13.0 0.00 0.00 0.00 73 998.5
20260505095247 72 269 3.0 10.0 0.00 0.00 0.00 73 998.4
20260505094747 72 189 2.0 4.0 0.00 0.00 0.00 73 998.4
20260505094247 72 271 2.0 7.0 0.00 0.00 0.00 72 998.4
20260505093747 72 240 2.0 9.0 0.00 0.00 0.00 72 998.3
20260505092747 72 234 3.0 7.0 0.00 0.00 0.00 72 998.4
20260505092247 72 254 1.0 7.0 0.00 0.00 0.00 73 998.4
20260505091747 72 257 2.0 10.0 0.00 0.00 0.00 73 998.5
20260505091248 72 242 2.0 10.0 0.00 0.00 0.00 73 998.7
20260505090747 72 221 1.0 7.0 0.00 0.00 0.00 73 998.6
20260505085747 72 238 2.0 7.0 0.00 0.00 0.00 73 998.7
20260505085247 72 230 1.0 5.0 0.00 0.00 0.00 73 998.7
20260505084747 72 253 2.0 13.0 0.00 0.00 0.00 73 998.9
20260505084247 72 215 2.0 13.0 0.00 0.00 0.00 74 998.8
20260505083748 72 222 2.0 7.0 0.00 0.00 0.00 74 998.9
20260505083247 72 209 1.0 8.0 0.00 0.00 0.00 74 999.0
20260505082747 72 247 2.0 8.0 0.00 0.00 0.00 74 999.1
20260505081747 72 275 2.0 7.0 0.00 0.00 0.00 74 999.2
20260505081248 72 249 2.0 7.0 0.00 0.00 0.00 74 999.2
20260505080747 72 249 5.0 7.0 0.00 0.00 0.00 74 999.2
20260505080247 72 214 1.0 7.0 0.00 0.00 0.00 74 999.2
20260505075747 72 251 1.0 7.0 0.00 0.00 0.00 74 999.3
20260505075247 72 213 1.0 7.0 0.00 0.00 0.00 74 999.3
20260505074747 72 155 5.0 7.0 0.00 0.00 0.00 74 999.3
20260505074247 72 249 2.0 10.0 0.00 0.00 0.00 74 999.4
20260505073747 72 120 2.0 10.0 0.00 0.00 0.00 74 999.5
20260505073247 72 236 2.0 5.0 0.00 0.00 0.00 74 999.5
20260505072747 72 222 1.0 13.0 0.00 0.00 0.00 74 999.5
20260505072247 72 248 2.0 13.0 0.00 0.00 0.00 74 999.6
20260505071747 72 220 1.0 12.0 0.00 0.00 0.00 74 999.8
20260505071247 72 199 2.0 18.0 0.00 0.00 0.00 74 999.9
20260505070747 72 157 7.0 18.0 0.00 0.00 0.00 73 1000.0
20260505065248 72 184 12.0 12.0 0.00 0.00 0.00 73 1000.2
20260505063747 72 168 1.0 9.0 0.00 0.00 0.00 73 1000.2
20260505063247 72 187 2.0 13.0 0.00 0.00 0.00 73 1000.4
20260505062247 72 169 3.0 14.0 0.00 0.00 0.00 73 1000.5
20260505061747 72 234 1.0 13.0 0.00 0.00 0.00 73 1000.5
20260505060747 72 247 2.0 12.0 0.00 0.00 0.00 73 1000.4
20260505055747 72 158 3.0 5.0 0.00 0.00 0.00 73 1000.7
20260505055247 72 183 6.0 5.0 0.00 0.00 0.00 73 1000.7